AirNav   Jet Aviation Boston
 
 452 users online  

KCVK Sharp County Regional Airport
Ash Flat, Arkansas, USA

GOING TO ASH FLAT?


FAA INFORMATION EFFECTIVE 29 MARCH 2018

Location

FAA Identifier: CVK
Lat/Long: 36-15-53.6000N / 091-33-45.6000W
36-15.893333N / 091-33.760000W
36.2648889 / -91.5626667
(estimated)
Elevation: 717.1 ft. / 218.6 m (surveyed)
Variation: 02E (1995)
From city: 3 miles NE of ASH FLAT, AR
Time zone: UTC -5 (UTC -6 during Standard Time)
Zip code: 72529

Airport Operations

Airport use: Open to the public
Activation date: 04/1963
Control tower: no
ARTCC: MEMPHIS CENTER
FSS: JONESBORO FLIGHT SERVICE STATION
NOTAMs facility: JBR (NOTAM-D service available)
Attendance: MON-FRI 0800-1700
Wind indicator: yes
Segmented circle: no
Lights: ACTVT MIRL RY 04/22 - CTAF.
Beacon: white-green (lighted land airport)
Operates sunset to sunrise.

Airport Communications

CTAF/UNICOM: 122.7
  • APCH/DEP SVC PROVIDED BY MEMPHIS ARTCC ON FREQS 120.075/289.4 (WALNUT RIDGE RCAG).

Nearby radio navigation aids

VOR radial/distance  VOR name  Freq  Var
ARGr283/30.9WALNUT RIDGE VORTAC114.5004E

 
NDB name  Hdg/Dist  Freq  Var  ID
LAWRENCE COUNTY275/31.122701ETNZ - -. --..

Airport Services

Fuel available: 100LL JET-A
SELF-SERVICE FUEL AVBL 24 HRS WITH CREDIT CARD (100LL & JET A)
Parking: hangars and tiedowns
Airframe service: MAJOR
Powerplant service: MAJOR

Runway Information

Runway 4/22

Dimensions: 5158 x 75 ft. / 1572 x 23 m
Surface: asphalt, in good condition
Weight bearing capacity: 
Single wheel: 12.5
Runway edge lights: medium intensity
RUNWAY 4  RUNWAY 22
Latitude: 36-15.556412N36-16.230408N
Longitude: 091-34.080208W091-33.440563W
Elevation: 669.3 ft.716.8 ft.
Gradient: 0.5%0.5%
Traffic pattern: leftleft
Runway heading: 036 magnetic, 038 true216 magnetic, 218 true
Displaced threshold: no154 ft.
Markings: nonprecision, in good conditionnonprecision, in good condition
Touchdown point: yes, no lightsyes, no lights
Obstructions: 25 ft. trees, 600 ft. from runway, 16:1 slope to clear6 ft. tree, 500 ft. from runway
APCH SLOPE 50:1 TO DSPLCD THLD.

Airport Ownership and Management from official FAA records

Ownership: Publicly-owned
Owner: SHARP COUNTY RGNL ARPT AUTHORITY
P.O. BOX 881
HARDY, AR 72542
Phone 870-856-4300
Manager: NONE, FBO LARRY KYRAL
P.O. BOX 881
HARDY, AR 72542
Phone 870-612-0031

Airport Operational Statistics

Aircraft based on the field: 11
Single engine airplanes: 11
    
Aircraft operations: avg 44/week *
48% transient general aviation
48% local general aviation
4% military
* for 12-month period ending 30 June 2017

Additional Remarks

RY 22 HAS 15+ FT DROP OFF 150 FT FM END OF PAVEMENT (304 FT FM DSPLCD THLD).

Instrument Procedures

NOTE: All procedures below are presented as PDF files. If you need a reader for these files, you should download the free Adobe Reader.

NOT FOR NAVIGATION. Please procure official charts for flight.
FAA instrument procedures published for use from 29 March 2018 at 0901Z to 26 April 2018 at 0900Z.

 
IAPs - Instrument Approach Procedures
RNAV (GPS) RWY 04   download (173KB)
RNAV (GPS) RWY 22   download (162KB)
NOTE: Special Take-Off Minimums/Departure Procedures apply   download (131KB)

Other nearby airports with instrument procedures:

6M2 - Horseshoe Bend Airport (10 nm W)
42A - Melbourne Municipal Airport - John E Miller Field (17 nm SW)
M70 - Pocahontas Municipal Airport (29 nm E)
KARG - Walnut Ridge Regional Airport (32 nm E)
KBVX - Batesville Regional Airport (33 nm S)
 
Loc | Ops | Rwys | IFR | FBO | Links
Com | Nav | Svcs | Stats | Notes

AirNav Hotels Sweepstakes
 
Area around KCVK (Sharp County Regional Airport)
 
Road maps at: MapQuest Bing Google
 
Aerial photo
WARNING: Photo may not be current or correct
Aerial photo of KCVK (Sharp County Regional Airport)
Photo courtesy of the Arkansas Department of Aeronautics
Taken in the Spring of 2007

Do you have a better or more recent aerial photo of Sharp County Regional Airport that you would like to share? If so, please send us your photo.

 
Sectional chart

 
Airport distance calculator
Flying to Sharp County Regional Airport? Find the distance to fly.

From to KCVK

Sunrise and sunset
Times for 25-Apr-2018
 Local
(UTC-5)
 Zulu
(UTC)
Morning civil twilight05:5410:54
Sunrise06:2111:21
Sunset19:4700:47
Evening civil twilight20:1501:15

Current date and time
Zulu (UTC)  25-Apr-2018 08:14:31
Local (UTC-5)  25-Apr-2018 03:14:31
 
METAR
KARG 
33nm E 
250756Z AUTO 24005KT 10SM CLR 13/11 A3002 RMK AO2 SLP165 T01280111
KBVX 
33nm S 
250756Z AUTO 29003KT 10SM CLR 11/10 A3004 RMK AO2 SLP173 T01060100
KUNO 
41nm NW 
250753Z AUTO 00000KT 10SM CLR 10/07 A3003 RMK AO2 SLP165 T01000072
KM19 
42nm SE 
250756Z AUTO 26006KT 10SM CLR 13/12 A3003 RMK AO2 SLP173 T01330117
KFLP 
44nm W 
250756Z AUTO 00000KT 10SM CLR 11/08 A3005 RMK AO2 SLP171 T01110083
KBPK 
44nm W 
250753Z AUTO 00000KT 10SM CLR 11/09 A3003 RMK AO2 SLP165 T01110089
K4M9 
45nm E 
250755Z AUTO 25006KT 10SM FEW025 12/12 A3000 RMK AO2 PWINO
TAF
KBPK 
44nm W 
250520Z 2506/2606 36004KT P6SM SCT250 FM251400 33004KT P6SM VCSH SCT025 BKN100 FM251700 33006KT P6SM -RA VCTS SCT040CB BKN100 OVC250 FM251900 33008KT P6SM -TSRA BKN050CB OVC100
NOTAMs
Click for the latest NOTAMs
NOTAMs are issued by the DoD/FAA and will open in a separate window not controlled by AirNav.

 

 
 

FBO, Fuel Providers, and Aircraft Ground Support

  
 Business Name 
 
 Contact 
 
 Services / Description 
 
Fuel Prices
 
Comments
  
Sharp County Regional Airport Authority 870-710-0469
870-257-2289
[email]
Aviation fuel, Aircraft parking (ramp or tiedown), Hangar leasing / sales, Aircraft maintenance, Rental cars, Courtesy transportation, Pilots lounge / snooze room, ...

More info about Sharp County Regional Airport Authority
Phillips 66
100LL Jet A
AS --- $3.45 
SS $3.91 --- 
 Updated 19-Apr-2018
 
   write
AS=Assisted/Self Service
SS=Self service
Update Fuel Prices
 

Would you like to see your business listed on this page?

 If your business provides an interesting product or service to pilots, flight crews, aircraft, or users of the Sharp County Regional Airport, you should consider listing it here.  To start the listing process, click on the button below
 
Add a business
 

Other Pages about Sharp County Regional Airport

Update a link
 
Copyright © AirNav, LLC. All rights reserved. Privacy Policy  Contact